Погода в Константинове

Россия / Московская область     55°29′16″N   37°58′55″E
темп.,
°C
ветер,
м/с
пор.,
м/с
влажн.,
%
обл.,
%
осадки,
мм/ч
давл.,
гПа
погр.,
м
15 апреля, чт
чт1500:00+11юв335997 0.0 101741
03:00+10юв226295 0.0 101718
06:00+9вюв226690 0.0 101721
09:00+13в335595 0.0 1017221
12:00+17в3443100 0.0 1017832
15:00+19в4635100 0.0 10161731
18:00+17всв6104599 0.0 1016373
21:00+13св81668100 0.0 1017519
16 апреля, пт
пт1600:00+10всв7148871 0.0 1018422
03:00+8всв61190100 0.0 1019385
06:00+7всв61392100 0.0 1020402
09:00+9всв71080100 0.0 1021503
12:00+14всв7961100 0.0 1021908
15:00+15всв7954100 0.0 10201348
18:00+14всв71061100 0.0 10211034
21:00+10всв71372100 0.0 1022705
17 апреля, сб
сб1700:00+9всв71377100 0.0 1023695
03:00+8всв61279100 0.0 1023551
06:00+7всв61280100 0.0 1024505
09:00+8всв7106672 0.2 1025596
12:00+12всв7955100 0.0 1025869
15:00+15всв79475 0.0 10251475
18:00+13всв710475 0.0 10251157
21:00+9св512502 0.0 1026341
18 апреля, вс
вс1800:00+7св513613 0.0 1027376
03:00+5св511680 0.0 1028289
06:00+4св411730 0.0 1029278
09:00+8всв69540 0.0 1029739
12:00+12всв67415 0.0 10291517
15:00+13всв66345 0.0 10291892
18:00+12всв57426 0.0 1029907
21:00+8св495995 0.0 1030188
19 апреля, пн
пн1900:00+6всв387048 0.0 1031154
03:00+5всв387977 0.0 1032176
06:00+4всв378581 0.0 1033178
09:00+8в57605 0.0 1034687
12:00+11в674322 0.0 10331551
15:00+12вюв563878 0.0 10331847
18:00+11вюв564281 0.0 10331244
21:00+7в495649 0.0 1034197